Wind_Speed
14 12 10 11 12 12 11 13 14 14 13 15 17 17 16 16 15 14 15 15 15 14 13 12 12 12 13 15 16 17 18 19 20 21 22 23 23 24 24 25 26 28 30 31 33 35 36 36 36 37 37 38 39 39 40 41 42 43 44 46 48 50 53 54 56 56 56 55 53 52 51 49 48 48 48 48 49 51 51 52 53 53 52 51 50
14 10 9 10 12 12 11 13 14 13 12 14 15 16 15 15 14 14 15 15 14 14 13 13 13 14 15 16 17 18 19 20 20 21 22 23 23 23 24 25 27 29 31 32 34 35 36 36 36 37 37 38 39 40 40 41 43 44 45 47 49 51 53 55 55 55 53 51 49 48 48 47 47 47 48 49 49 50 51 51 52 52 52 51 51
14 11 9 10 13 13 12 13 14 14 13 14 15 16 16 15 15 16 16 15 15 14 14 14 14 15 16 17 18 19 20 21 21 22 22 22 22 23 25 26 28 30 31 33 34 35 36 36 36 36 37 38 39 40 41 42 43 45 47 49 51 53 54 54 54 53 51 49 47 46 46 47 46 47 48 48 48 49 50 51 51 52 52 51 51
14 11 9 10 12 13 12 13 13 13 14 15 17 18 17 17 18 18 17 16 16 15 15 15 15 16 18 19 20 20 21 21 22 22 22 22 23 24 26 27 29 31 32 33 35 35 36 35 36 36 37 38 39 40 41 43 44 46 48 50 52 53 53 53 52 50 48 46 46 46 46 46 47 46 46 46 47 48 50 50 50 50 50 49 48
12 10 8 9 11 12 12 12 13 14 15 17 18 19 19 19 19 19 18 17 17 16 16 17 18 19 19 20 20 20 21 21 21 21 21 22 23 25 27 28 30 31 33 34 35 35 35 35 35 36 36 37 39 40 42 43 45 47 49 51 51 51 51 50 48 47 46 45 45 45 45 45 45 45 45 46 46 47 48 48 46 45 44 43 40
12 11 10 9 10 12 12 12 13 14 16 18 19 20 19 19 19 19 19 19 18 18 18 19 19 20 20 20 20 20 21 21 21 21 21 23 24 26 28 29 31 32 33 34 35 35 35 35 35 35 36 38 39 40 42 44 46 48 49 50 49 49 48 47 45 44 44 44 44 44 44 44 44 45 46 46 47 46 45 44 43 40 38 35 32
14 13 11 11 11 12 13 13 13 14 16 17 19 19 20 20 21 20 20 20 19 19 19 20 20 20 20 20 20 20 21 21 20 21 22 23 25 27 28 30 31 33 33 34 34 34 34 34 34 35 36 38 39 40 42 44 46 47 48 48 47 46 45 44 43 42 43 43 43 42 42 43 44 44 45 46 46 45 43 42 39 36 33 30 28
16 14 13 12 13 13 14 14 14 14 15 17 18 19 19 20 21 21 21 20 20 20 20 20 20 20 20 20 20 21 21 20 20 21 22 24 26 27 29 30 32 33 33 33 33 33 33 33 34 35 36 37 39 40 42 44 46 47 47 47 45 45 44 43 42 41 42 42 42 41 42 43 43 44 44 44 44 43 43 42 39 35 32 30 29
18 16 15 14 14 14 15 16 16 16 16 17 18 18 19 19 20 21 22 22 21 21 21 21 20 20 21 21 21 22 21 21 21 22 23 25 26 28 29 31 32 32 33 33 33 32 32 33 34 35 36 37 38 40 42 44 45 46 46 45 44 43 42 41 41 41 41 41 40 41 42 43 43 44 44 44 45 45 46 44 40 36 33 32 32
20 18 17 16 15 15 16 17 17 17 17 18 18 18 18 19 20 21 23 24 24 23 22 22 21 22 22 22 22 22 21 21 21 22 24 26 27 28 30 31 31 32 32 32 32 31 31 33 34 35 36 37 38 40 42 44 45 45 45 44 43 42 41 41 40 41 40 40 40 41 42 43 44 44 45 46 47 48 47 45 41 38 35 34 34
21 20 18 17 17 17 17 18 18 18 18 19 19 18 18 19 20 21 23 24 25 25 24 23 23 24 24 24 23 23 22 22 22 24 25 26 28 29 30 31 31 31 32 31 31 30 31 32 34 34 36 37 38 40 42 43 44 45 44 43 43 42 41 40 40 40 40 39 40 40 41 43 44 44 45 46 48 50 50 47 44 41 38 36 36
23 22 21 20 19 19 19 19 19 20 20 20 20 19 20 20 20 21 22 24 25 26 26 26 26 26 26 25 24 24 23 23 23 25 26 27 28 29 30 30 30 31 31 30 30 30 31 33 33 34 35 37 38 40 42 43 44 45 44 44 43 42 41 40 40 40 40 39 40 40 41 42 44 45 46 47 49 51 51 49 46 44 42 40 39
24 23 23 22 22 22 22 22 22 22 22 21 21 21 21 22 22 22 23 24 26 27 27 28 28 28 27 26 26 25 24 24 24 25 27 27 28 28 29 29 30 30 30 29 29 30 32 33 33 34 35 36 38 40 42 43 44 44 44 44 43 42 40 39 40 40 40 39 39 40 40 41 43 45 47 48 49 51 51 50 48 46 44 43 42
25 24 24 24 24 24 24 24 24 24 23 22 22 22 22 23 24 25 25 25 27 28 29 30 30 29 28 28 27 26 25 25 25 26 27 27 28 28 28 29 29 29 29 28 29 30 31 32 33 34 35 36 38 40 41 42 43 43 43 43 42 41 40 39 40 40 39 39 39 39 40 41 42 44 46 48 49 50 52 51 50 48 46 44 43
25 25 25 25 26 26 26 26 26 25 24 23 23 23 23 24 25 26 27 27 29 30 32 32 31 30 30 29 29 28 26 25 26 26 27 27 27 27 28 28 28 28 28 28 29 30 31 32 32 33 34 36 37 39 40 41 41 42 42 42 42 40 39 39 39 39 38 38 39 39 40 41 42 43 45 47 48 49 51 51 50 49 47 45 43
26 26 26 27 27 27 27 27 27 27 26 25 24 24 24 26 27 27 27 29 31 33 34 34 33 33 32 31 30 28 26 26 26 26 26 26 27 27 27 27 27 27 27 28 29 30 30 31 32 33 34 35 37 38 38 39 39 40 40 41 41 40 39 39 39 39 38 38 39 40 41 42 43 43 44 45 46 47 49 49 50 49 47 45 42
30 29 29 28 28 28 28 29 29 29 29 27 26 25 26 27 28 27 27 29 32 34 36 37 37 36 34 31 29 27 26 26 26 25 26 26 26 27 27 26 26 26 26 27 28 29 30 30 31 32 33 34 36 36 37 37 37 38 38 38 38 37 37 38 38 38 38 38 38 40 41 42 43 44 44 44 45 45 47 48 49 50 49 47 44
32 32 31 31 30 30 30 30 31 30 29 28 27 26 26 27 28 29 29 29 31 34 38 40 40 37 34 30 27 26 25 25 25 24 25 26 26 26 26 25 25 25 26 27 28 29 29 30 30 31 32 34 34 35 35 35 35 36 36 36 35 34 34 35 35 36 37 37 38 39 40 41 43 44 45 45 45 44 45 46 49 50 50 49 47
31 32 33 33 32 32 30 30 31 31 30 29 27 26 27 28 30 30 30 30 31 33 39 43 42 36 31 28 27 25 24 23 23 24 25 25 26 25 25 24 25 25 25 27 27 28 29 29 30 31 32 33 33 33 33 33 34 34 34 34 33 32 32 33 33 34 35 36 37 38 39 40 42 43 45 46 46 45 45 45 47 49 50 50 49
29 31 32 32 31 31 30 29 30 31 30 29 26 25 27 29 29 29 28 28 29 30 35 39 38 31 27 27 25 23 22 22 23 24 24 25 25 24 24 24 24 24 25 26 27 28 28 29 29 30 31 31 32 32 32 32 32 32 33 33 32 31 31 32 32 34 35 35 36 37 38 39 40 42 43 44 46 46 46 45 46 47 49 50 50
29 29 30 30 31 31 31 30 29 28 27 26 24 25 27 28 28 28 27 27 28 28 30 32 31 26 25 25 23 21 21 22 23 24 24 24 24 24 24 23 23 24 25 26 26 27 28 28 29 30 30 30 31 31 31 31 31 32 32 32 32 31 31 31 32 33 34 35 36 36 37 38 39 40 42 43 45 46 46 47 46 47 48 49 50
29 29 30 30 30 30 31 30 28 26 25 25 24 25 26 27 27 28 27 27 27 25 23 24 24 23 23 23 21 20 21 22 23 23 24 24 23 23 23 22 23 24 25 26 26 27 28 28 29 29 29 29 30 30 30 30 31 32 32 33 32 32 31 31 32 32 33 34 35 35 36 36 37 38 40 42 43 45 46 47 47 47 48 48 49
30 29 30 31 30 29 29 29 28 26 25 24 24 25 25 26 27 27 28 28 26 22 20 20 21 21 22 22 21 21 22 22 23 23 23 23 23 22 22 22 23 24 24 25 26 27 28 28 29 29 28 29 29 29 29 29 30 31 32 33 33 33 33 32 32 32 32 33 34 34 35 35 36 37 38 40 41 43 45 46 47 48 48 48 48
31 31 30 30 29 29 29 29 28 27 25 24 25 25 25 26 26 27 27 28 26 23 23 24 21 20 21 21 21 22 22 22 23 23 23 22 21 21 21 22 23 24 24 25 26 27 28 28 29 29 28 28 28 29 28 28 29 30 31 32 33 33 33 32 32 32 32 32 33 33 34 35 35 36 36 38 39 41 43 44 46 47 48 48 47
29 30 30 30 29 30 30 29 28 26 25 25 25 25 25 26 26 26 27 27 26 25 26 25 22 19 20 22 22 22 22 22 23 22 21 21 21 21 21 22 23 24 24 25 26 27 28 28 29 29 28 27 28 28 27 27 28 29 30 31 32 32 32 32 32 32 32 33 33 33 34 34 35 36 36 37 38 39 39 41 42 43 45 46 47
29 29 30 31 31 31 30 28 27 26 26 26 26 25 25 26 26 25 25 26 25 25 26 24 21 20 21 21 22 22 22 22 22 21 21 21 21 21 22 22 23 24 25 26 26 27 28 29 29 29 28 27 27 28 27 26 27 28 29 30 31 31 31 31 31 32 32 33 33 34 34 34 35 36 36 37 37 37 37 37 38 39 40 42 44
30 31 31 31 31 30 29 28 27 27 27 27 26 25 25 25 25 25 25 24 24 24 24 23 21 20 21 22 22 23 22 22 22 21 21 21 21 22 22 23 24 25 25 26 27 28 28 29 30 29 28 27 28 28 27 26 27 27 28 29 30 30 30 31 31 32 32 33 33 34 34 34 34 35 35 36 36 36 36 36 36 36 37 38 39
31 31 32 31 30 29 28 28 28 28 27 27 26 25 25 26 25 25 24 24 23 23 23 23 22 21 22 22 23 23 22 22 22 22 22 22 22 22 23 24 25 26 26 26 27 28 29 30 30 30 29 28 28 28 27 26 26 27 28 29 29 29 30 30 31 31 32 32 32 33 33 33 34 34 35 35 36 36 36 36 36 36 36 35 36
32 32 33 33 32 31 30 29 28 28 27 27 26 26 27 27 25 24 24 24 24 23 23 23 23 22 23 23 23 23 23 23 23 23 23 23 23 23 24 25 26 27 27 27 28 29 30 31 31 31 30 29 28 28 27 26 26 27 27 28 28 28 29 29 30 30 31 32 32 32 32 32 33 33 34 34 35 35 35 36 35 35 35 35 35
34 33 33 33 33 33 32 31 30 29 28 28 27 26 26 26 25 25 26 26 25 24 24 25 25 24 24 24 23 23 23 23 23 23 23 24 24 24 25 26 27 27 28 28 29 29 30 31 32 31 31 30 29 29 28 27 27 27 28 28 28 28 28 28 29 29 30 31 31 32 32 32 32 32 33 33 33 34 34 35 35 35 35 35 34
39 37 36 35 35 35 34 32 31 30 29 29 28 27 26 27 28 28 28 28 27 26 26 27 26 26 26 25 24 24 24 24 24 24 24 24 25 25 26 27 28 28 29 29 30 30 31 32 32 32 32 31 30 30 29 28 28 28 29 29 29 29 29 29 29 29 30 30 31 31 32 32 32 32 32 32 32 32 32 33 34 35 35 35 34
43 40 38 37 37 37 35 33 33 32 30 30 30 29 29 30 31 31 30 30 29 29 28 28 28 28 27 26 25 25 25 25 25 25 25 25 26 26 27 28 29 29 30 30 30 31 31 32 33 33 32 32 31 30 29 29 29 29 30 30 29 30 30 30 30 30 30 30 30 31 31 32 32 32 32 32 31 31 31 31 32 33 33 34 34
45 43 41 39 38 38 37 35 34 33 32 31 31 31 32 33 33 33 33 32 32 31 30 29 29 29 28 27 27 26 26 26 26 26 26 27 27 28 29 29 30 31 31 31 31 31 32 33 33 33 33 33 32 31 30 29 30 30 31 30 30 30 31 31 31 31 31 31 31 31 31 32 32 33 32 32 32 32 31 31 31 31 32 32 33
46 46 46 44 41 39 38 36 35 34 33 34 34 34 34 35 35 35 35 34 33 32 32 31 31 30 30 29 28 28 28 28 28 28 28 29 29 29 30 30 31 32 32 32 33 33 33 34 35 34 34 33 33 32 30 30 31 31 31 31 31 31 31 32 32 32 32 32 31 31 31 32 33 33 33 32 32 32 32 32 32 32 32 32 32
42 45 46 46 44 41 38 36 35 34 34 36 36 36 37 37 37 38 37 36 36 35 34 34 33 32 31 31 30 30 30 30 30 30 30 30 30 30 31 32 33 33 33 33 34 34 35 36 36 36 35 34 34 33 31 31 31 32 32 32 31 31 31 32 33 33 33 32 32 32 32 33 33 34 34 34 33 33 33 33 33 33 33 33 33
39 41 43 44 43 41 39 36 35 34 35 38 39 40 40 39 39 40 39 39 38 37 36 36 35 34 33 33 32 33 33 33 33 32 31 31 31 32 33 34 34 34 34 35 35 36 37 37 37 37 36 36 35 34 32 32 32 33 33 33 32 32 32 32 33 33 33 33 33 33 34 34 34 35 36 36 35 35 35 34 34 34 34 34 34
38 39 40 41 41 40 38 37 36 35 36 38 41 43 44 42 41 41 42 42 41 40 39 38 37 37 36 36 36 36 36 36 35 34 33 33 34 34 35 35 35 35 36 37 37 38 38 39 39 38 37 37 36 35 34 33 33 34 34 34 33 33 32 32 33 34 34 34 35 35 35 36 37 37 38 38 38 38 37 36 36 36 36 36 35
37 37 39 39 38 38 37 37 37 36 36 36 36 38 40 40 40 42 45 46 45 43 42 41 40 40 40 40 39 39 39 38 37 36 35 35 36 36 35 36 36 37 39 40 40 40 40 41 40 39 39 38 37 36 35 34 35 35 35 35 34 34 33 34 35 36 35 36 36 37 38 38 39 39 40 40 40 40 39 39 38 38 38 38 37
35 36 37 37 36 36 37 37 37 37 37 36 34 34 36 37 39 42 47 50 50 48 46 44 43 42 43 43 42 42 41 40 39 39 38 37 36 36 36 37 38 40 41 42 42 42 42 42 41 40 40 39 38 37 36 36 36 36 36 36 35 35 35 35 36 37 37 37 38 39 40 40 41 42 42 42 42 41 41 41 41 41 41 41 40
32 33 34 34 34 34 35 35 36 36 37 37 36 35 36 36 37 40 43 48 52 53 50 46 45 46 46 46 46 45 43 42 41 41 40 38 37 37 37 39 40 42 43 44 44 44 44 43 43 42 41 40 39 38 38 38 38 37 37 37 37 36 37 37 38 39 38 38 39 41 41 42 43 43 43 43 43 42 42 43 43 43 43 43 43
31 31 31 31 31 31 32 33 34 35 36 37 37 37 37 37 37 37 37 41 47 53 52 48 48 49 49 49 49 47 45 43 43 43 42 41 40 40 40 41 42 44 45 46 46 46 45 44 44 43 41 40 40 40 39 39 39 38 38 38 38 38 39 39 40 40 40 40 41 42 43 43 44 44 44 44 43 43 44 44 45 45 45 45 45
30 30 30 29 29 29 30 31 32 33 34 35 36 37 38 38 38 36 34 34 39 47 53 51 49 49 51 52 52 49 46 45 45 45 45 45 43 43 43 44 44 46 47 47 47 47 47 45 43 42 41 41 41 41 40 40 40 39 39 39 40 40 40 41 42 42 42 42 43 44 44 44 44 44 45 45 45 45 45 46 46 47 47 47 47
29 29 28 28 28 28 29 30 31 32 33 35 36 37 38 38 38 37 35 33 34 39 47 51 50 50 52 55 54 51 49 47 47 48 49 48 46 45 46 47 48 48 49 49 49 49 47 45 43 43 43 42 42 42 41 41 40 40 40 41 42 42 42 43 44 44 44 44 45 46 46 46 46 46 46 46 46 47 47 48 48 49 49 49 48
28 27 27 27 28 29 30 31 32 33 34 36 36 37 38 39 38 37 36 34 32 33 38 45 49 51 53 55 55 53 51 50 50 51 51 49 47 48 49 50 51 51 51 51 50 49 47 45 45 45 44 44 43 42 42 42 41 41 42 42 43 44 44 44 45 46 46 46 47 47 47 48 48 48 48 48 48 48 49 49 50 50 51 50 50
27 27 28 28 29 30 32 33 34 34 35 36 36 37 37 38 38 36 35 33 32 31 33 39 45 50 53 56 57 55 53 53 53 53 52 50 50 50 51 52 54 54 54 52 51 50 48 48 47 47 46 44 44 43 43 42 42 42 43 44 45 45 45 45 46 47 48 48 48 48 49 49 50 51 51 51 51 51 51 51 51 52 52 51 50
26 27 28 29 30 31 32 33 34 34 35 35 36 36 37 37 37 37 36 34 34 33 34 37 41 46 50 54 58 58 56 54 53 53 53 53 53 53 54 56 56 56 54 52 50 50 50 49 48 47 46 45 44 44 43 43 43 44 45 46 46 47 47 46 47 48 49 49 50 50 51 51 52 52 53 53 53 53 53 53 54 54 53 52 51
27 28 29 30 30 31 32 33 33 34 34 35 35 36 37 37 37 38 38 37 36 36 36 38 41 44 48 53 57 58 56 53 53 53 54 55 55 55 56 58 57 54 51 50 50 50 49 49 48 47 46 45 45 44 44 44 45 45 46 47 48 48 48 48 48 49 50 50 51 52 52 53 53 54 54 54 55 55 56 56 56 56 55 54 52
29 29 30 30 31 32 33 33 34 34 34 35 36 36 37 38 38 39 39 38 37 36 36 38 42 46 51 54 56 56 55 54 54 54 54 54 55 55 56 56 54 51 49 49 49 49 49 48 48 47 46 45 45 45 45 46 46 47 48 48 49 49 49 49 50 50 51 52 53 53 54 54 55 55 55 56 56 57 57 57 57 56 55 55 54
29 30 31 31 32 33 34 35 35 36 36 36 36 35 36 37 38 40 40 40 38 37 37 37 39 45 50 53 53 53 53 52 51 50 51 52 53 53 52 51 50 48 48 48 48 48 48 48 47 47 46 45 46 46 46 47 47 48 49 49 50 50 50 51 52 52 54 54 55 55 55 56 56 56 57 57 58 58 58 57 57 56 56 56 56
30 31 31 32 33 34 35 35 36 37 37 37 37 37 36 36 37 38 39 40 39 38 36 35 36 40 45 48 47 46 46 45 44 45 45 46 46 45 45 45 45 46 46 46 47 47 47 47 47 46 46 46 47 47 47 48 49 49 50 50 51 51 52 53 54 55 56 56 57 57 57 57 57 57 58 58 58 58 58 58 58 58 58 58 58
30 31 32 32 33 34 34 35 36 37 38 38 38 37 36 35 34 35 36 37 37 37 36 36 38 41 43 44 42 41 40 40 40 40 39 39 39 40 41 42 43 44 45 45 46 47 47 47 47 46 46 47 48 48 48 49 49 50 51 52 52 53 54 55 56 57 57 58 58 58 58 58 58 58 59 59 59 58 58 59 59 59 59 59 58
Wind_Direction
241 242 234 236 221 198 198 209 208 209 213 218 221 221 222 222 220 218 218 219 221 225 231 239 247 255 262 268 272 277 280 284 287 288 289 290 292 294 297 301 306 311 316 319 321 322 322 323 324 326 328 329 329 328 328 328 327 327 326 326 326 326 327 326 325 325 324 324 324 323 322 322 321 320 318 317 315 313 312 310 309 308 307 305 302
236 234 232 231 216 206 213 216 214 220 224 221 221 223 223 220 216 217 218 221 225 231 238 246 254 262 267 271 275 278 281 283 285 287 288 289 292 296 301 307 312 317 319 321 322 323 324 325 327 328 329 329 329 329 328 328 327 327 326 326 327 327 326 326 325 325 326 326 326 326 325 323 322 320 319 318 316 315 313 313 312 311 309 307 305
229 231 230 228 223 225 229 227 226 229 226 219 218 219 219 216 216 219 221 225 231 238 245 252 259 265 269 272 275 278 280 282 284 286 287 290 295 301 307 312 316 319 321 322 323 324 326 327 328 329 329 329 329 329 329 328 327 327 328 328 328 328 327 326 326 327 327 327 327 327 325 324 323 322 321 320 319 317 316 315 314 313 311 310 308
228 230 228 227 229 231 233 232 231 227 221 218 219 220 220 218 219 222 225 230 236 242 249 256 261 265 269 271 274 277 279 282 284 285 288 293 300 306 311 315 319 321 322 323 324 326 327 328 329 329 329 329 330 329 328 328 328 329 330 330 329 329 329 329 329 329 329 329 329 328 326 326 325 325 324 323 322 321 319 318 317 315 313 312 311
239 240 237 233 231 232 232 232 231 227 223 221 224 226 226 225 226 228 231 235 239 245 251 257 261 265 268 271 274 277 280 281 283 285 291 298 304 310 314 318 320 321 322 324 325 326 328 328 329 329 330 330 329 329 328 329 330 331 331 331 331 332 332 333 332 332 331 331 330 330 329 329 329 328 327 325 324 324 322 321 320 318 316 314 312
250 251 248 242 236 234 233 232 231 232 231 230 233 235 235 235 235 237 239 240 243 249 254 259 262 265 268 271 274 277 279 280 282 288 295 302 308 313 316 319 320 321 323 324 326 327 328 328 329 330 330 329 329 328 329 330 332 332 333 333 334 335 335 335 334 334 333 333 333 333 332 332 332 331 330 329 328 328 326 324 325 324 320 316 313
250 253 253 247 241 238 238 237 237 238 240 242 244 245 245 244 244 244 245 245 248 253 257 261 264 266 269 271 274 276 277 279 283 291 299 305 311 314 317 319 320 321 323 325 326 327 327 328 329 329 329 328 328 329 330 332 333 334 334 336 337 337 337 336 336 335 335 336 336 336 336 336 336 335 334 333 333 332 330 327 328 330 328 321 315
248 251 253 250 245 242 242 244 246 247 249 250 252 253 253 252 251 251 249 249 252 258 262 264 265 266 268 271 273 274 275 278 285 294 302 307 311 315 317 318 319 321 323 325 326 326 327 328 329 328 328 328 329 330 332 333 334 335 336 338 339 339 338 337 337 338 338 338 338 339 340 340 340 339 338 337 337 338 338 335 334 335 336 331 324
246 249 252 253 250 246 245 247 252 255 255 255 256 257 258 258 258 256 253 253 257 262 265 266 265 266 268 271 273 273 274 280 288 296 303 308 312 315 316 317 319 321 323 325 325 326 327 327 327 326 326 327 329 331 333 335 336 337 338 340 340 340 339 338 339 341 341 341 342 343 343 343 343 342 341 342 344 345 346 343 340 339 340 340 336
243 246 250 253 254 251 249 250 253 258 259 259 259 260 261 260 260 259 257 257 259 263 266 267 266 267 269 271 272 271 274 281 290 298 304 309 312 314 315 317 319 321 323 324 324 325 325 325 325 325 326 328 330 332 334 336 337 338 339 341 341 341 340 341 342 343 343 343 345 345 346 347 347 346 347 348 350 352 352 348 344 343 343 343 341
242 245 247 251 254 254 253 253 254 258 260 262 263 262 262 261 260 260 259 259 261 263 266 267 267 268 270 271 271 271 275 282 291 299 304 308 311 313 314 316 319 321 323 323 323 323 323 323 323 324 326 328 331 333 335 336 337 338 339 341 342 341 341 343 344 344 345 346 347 347 349 350 351 351 352 353 354 356 356 353 348 346 346 345 344
242 244 246 249 252 254 254 254 254 256 259 261 263 264 264 263 263 263 263 263 263 264 266 267 267 268 269 271 271 271 275 283 291 298 303 307 310 311 313 316 319 321 321 321 321 321 322 322 323 324 327 329 332 335 336 337 338 339 340 341 342 342 343 345 346 346 347 348 348 349 351 354 355 355 355 356 357 358 359 357 354 350 349 349 348
243 245 248 250 252 253 254 254 254 255 256 259 262 264 265 267 268 268 268 267 266 266 266 267 267 267 269 271 271 272 275 282 290 296 301 305 308 310 313 316 319 320 319 319 319 320 321 321 323 325 327 330 334 336 337 338 339 340 341 342 343 344 345 346 347 348 349 349 349 350 353 356 359 360 0 360 359 360 0 0 358 356 354 353 353
247 250 252 253 255 255 255 255 255 255 256 258 260 263 265 267 270 271 271 271 270 269 267 267 266 266 267 269 270 271 275 281 288 293 299 303 307 310 314 316 318 318 317 317 318 319 320 321 322 325 328 331 335 337 338 340 341 341 342 343 344 345 346 347 349 350 351 351 351 353 355 357 0 3 5 4 2 1 1 2 1 1 359 358 358
251 254 256 256 256 256 255 255 255 255 256 257 258 261 263 265 267 269 271 273 272 270 267 266 265 263 263 266 268 269 273 279 285 291 297 302 307 310 313 315 316 316 316 316 317 319 320 321 323 325 329 333 336 338 339 341 342 342 343 343 344 344 345 347 349 351 352 352 353 354 356 358 1 5 7 7 6 4 3 3 3 4 4 2 1
257 258 258 257 256 256 256 256 256 256 256 257 258 260 262 264 266 269 273 275 275 272 266 263 262 261 260 263 267 270 273 278 283 290 297 303 307 310 313 314 314 314 314 315 317 319 319 321 323 326 330 334 337 338 340 342 342 343 343 343 343 343 344 346 349 351 352 354 354 356 358 360 1 4 7 8 8 7 5 4 4 5 6 5 5
258 258 258 257 256 256 256 256 256 257 258 259 260 261 263 265 268 272 276 279 279 276 269 262 259 258 257 261 267 270 273 277 283 290 297 302 307 310 311 312 312 312 313 315 317 318 319 320 323 326 331 335 337 338 340 342 343 343 343 342 342 342 343 346 348 350 351 354 356 358 360 1 1 3 5 7 9 8 7 6 6 7 7 8 8
256 256 256 255 255 256 256 256 257 258 260 261 260 261 264 267 271 275 278 281 283 279 272 264 257 254 255 260 267 271 274 278 284 291 297 302 306 308 309 310 310 310 312 315 316 317 318 320 323 327 332 335 336 338 340 342 343 342 342 341 340 340 342 344 347 348 350 353 355 358 360 1 2 2 3 5 7 8 8 8 8 9 9 9 10
255 253 253 253 255 256 256 256 256 258 261 261 261 264 268 271 275 277 280 284 284 279 272 263 255 251 255 261 268 272 274 279 286 292 298 301 304 306 307 308 308 309 312 314 315 316 317 319 323 328 332 334 335 337 339 341 342 342 341 340 339 339 340 341 343 346 349 351 354 357 358 359 1 2 2 2 3 6 8 10 10 10 10 10 11
253 251 251 252 254 255 255 255 255 258 261 262 262 268 273 274 277 279 281 283 281 280 275 264 253 251 258 264 268 271 274 281 288 293 298 301 304 305 305 305 306 308 311 313 314 315 316 319 323 327 331 332 333 335 337 339 340 340 340 339 339 339 339 340 341 344 347 350 352 355 357 358 359 0 1 1 1 3 6 9 11 11 11 12 12
254 252 251 251 251 251 253 255 256 258 262 264 265 268 271 273 276 278 279 279 281 286 283 267 254 256 265 265 266 270 276 285 291 294 298 301 302 303 302 303 305 307 310 311 312 314 316 319 322 326 328 330 331 333 335 337 338 339 339 338 338 339 339 339 340 342 345 348 351 352 354 356 357 358 359 360 0 1 3 6 10 11 11 11 12
256 252 249 249 250 251 253 256 258 259 262 265 265 265 267 269 273 275 276 278 281 286 281 263 256 263 267 265 267 274 282 288 291 295 298 299 300 300 300 301 304 307 309 310 311 313 315 318 321 324 326 327 328 330 333 335 336 337 337 337 338 339 340 340 341 342 344 346 348 350 351 353 354 356 358 359 360 0 2 4 6 9 11 11 11
256 255 252 252 252 253 253 256 258 259 261 262 262 264 266 267 268 270 273 276 279 278 270 261 261 265 266 267 273 280 285 289 292 295 296 296 297 298 299 301 304 306 307 308 310 313 315 317 319 321 322 324 326 327 330 333 334 335 335 336 337 338 339 340 341 342 343 343 345 347 348 349 351 354 356 358 359 0 1 2 3 5 8 10 11
254 256 258 257 256 254 253 255 256 258 260 261 262 264 266 266 267 268 270 273 275 272 267 265 264 264 268 273 278 283 287 289 291 293 294 295 296 297 298 300 303 304 306 307 309 311 313 314 316 317 319 321 323 324 327 330 331 332 332 334 336 337 338 339 341 342 342 342 342 343 345 347 348 350 353 356 358 360 0 1 2 2 4 6 9
254 256 258 259 257 255 255 256 258 258 259 260 262 265 266 266 268 268 269 273 274 269 265 264 263 264 271 276 280 284 287 288 289 291 292 294 295 295 297 300 301 303 304 306 308 310 311 312 313 313 315 318 319 321 324 327 327 328 330 333 334 335 336 338 339 340 340 340 341 341 343 344 346 347 349 352 355 358 359 0 1 1 2 2 4
257 258 259 258 257 256 257 259 260 259 259 261 264 266 266 266 268 268 270 272 270 263 260 261 261 264 271 276 281 284 286 287 289 291 292 293 294 294 296 298 300 301 302 304 306 307 308 309 310 310 312 315 316 317 321 323 323 324 327 329 330 332 334 335 337 338 339 339 340 340 341 342 344 345 346 347 350 353 356 358 359 360 1 1 1
258 259 260 259 258 257 258 259 259 260 261 262 264 265 265 266 267 267 268 267 262 257 258 262 263 267 273 278 281 284 286 287 289 291 292 293 293 294 295 297 298 299 300 302 304 305 306 307 307 307 309 311 313 315 317 319 320 321 323 324 326 329 331 333 335 336 337 338 339 339 339 340 341 342 342 343 344 347 350 353 355 357 359 0 1
256 257 258 260 262 261 260 259 259 261 261 262 263 264 265 265 265 265 266 264 259 257 260 264 267 271 276 279 282 285 286 288 289 291 292 292 292 292 294 294 295 296 298 300 302 303 304 305 305 305 307 309 310 311 313 315 315 316 317 319 323 326 328 331 333 334 335 336 337 338 338 338 338 338 339 339 340 342 344 347 350 352 355 357 358
257 256 257 260 263 264 263 261 260 260 261 261 263 265 264 263 263 263 263 261 258 257 261 266 270 273 276 279 283 286 287 287 288 289 290 290 290 290 291 292 293 294 296 299 300 301 302 303 304 304 305 306 307 307 309 310 310 310 312 315 319 322 325 328 330 331 332 333 335 336 336 336 336 336 336 336 337 338 339 341 344 346 349 352 354
258 256 256 258 260 261 261 259 259 260 261 262 264 263 261 260 261 261 260 259 257 257 261 266 271 273 275 279 283 286 286 286 287 288 288 288 288 289 289 289 290 292 295 297 299 300 302 302 302 302 302 303 303 304 305 306 307 306 308 311 315 319 321 323 325 327 328 330 332 334 334 335 335 335 334 334 334 334 335 337 339 341 343 345 348
257 257 257 257 256 257 258 258 259 261 262 262 263 260 256 257 260 261 259 257 257 257 260 265 269 271 274 277 281 284 285 285 285 285 285 286 286 287 287 288 289 291 293 295 297 298 300 301 300 300 300 300 301 301 302 303 304 304 306 308 312 315 317 319 321 323 324 326 329 331 332 332 333 333 333 333 332 333 333 334 335 337 338 339 341
256 257 257 256 255 256 257 259 261 262 261 261 261 258 254 255 259 259 257 255 255 255 258 263 266 269 272 275 278 281 283 283 283 283 283 284 285 284 285 286 288 289 291 293 294 296 297 298 298 297 297 298 298 299 300 301 301 302 303 306 308 311 313 315 317 319 320 322 324 327 328 329 330 331 331 332 332 332 333 334 333 334 335 336 337
253 253 254 255 256 256 258 259 260 260 259 258 258 257 255 255 257 257 255 254 254 254 257 260 264 267 270 273 276 279 281 281 281 282 283 283 283 283 283 285 286 287 288 290 291 293 295 295 295 294 294 295 296 297 298 298 299 299 300 302 305 307 309 311 313 315 317 318 320 323 325 326 327 329 329 330 331 332 332 333 334 334 334 335 335
252 251 252 254 255 257 258 260 260 260 260 258 257 257 257 257 257 257 256 255 255 254 255 258 262 265 269 273 276 278 279 279 280 281 282 283 282 282 283 283 284 285 286 288 289 291 292 292 292 292 292 292 293 294 295 296 296 297 297 299 301 304 306 308 311 313 314 315 317 320 321 323 324 326 327 328 330 331 332 333 333 333 333 333 333
252 252 252 253 255 256 258 260 261 261 261 260 259 258 257 257 257 257 257 256 255 254 254 257 261 265 268 271 274 276 277 277 278 280 282 283 282 281 281 281 282 283 285 287 288 289 289 290 290 290 290 290 291 292 293 293 294 294 295 296 299 301 304 307 309 311 312 313 315 317 319 320 321 323 324 325 326 328 329 331 331 332 332 332 332
252 252 252 253 254 254 256 258 259 260 261 262 260 259 257 257 257 257 257 257 257 255 255 257 260 263 266 269 271 273 274 275 277 280 281 281 281 280 279 279 280 282 283 283 284 286 287 288 288 288 288 289 290 291 291 292 292 292 293 294 297 300 303 306 308 309 310 312 314 315 317 318 319 320 321 322 323 324 325 327 329 330 330 330 330
254 253 253 253 253 254 254 255 256 257 261 264 263 260 257 256 255 256 257 258 257 256 255 255 257 260 263 265 267 269 272 275 278 279 279 279 279 278 279 279 281 281 281 281 282 284 285 286 286 287 287 287 288 289 290 289 290 290 291 293 295 298 302 304 306 307 309 311 312 314 315 316 317 318 318 319 320 321 322 324 325 327 328 328 328
257 256 254 253 253 253 253 254 255 259 263 267 267 263 259 257 257 258 258 257 257 256 254 253 254 257 260 262 264 267 270 274 276 275 275 277 278 278 279 280 280 280 280 281 282 283 283 284 284 285 285 285 285 287 287 287 288 288 289 292 294 297 300 302 303 304 307 310 311 312 313 314 315 315 316 316 317 318 319 321 322 323 325 325 325
260 257 256 255 254 253 254 255 258 262 265 266 267 266 264 264 265 263 261 258 256 254 253 251 251 254 258 260 262 264 267 270 272 272 273 275 277 278 278 278 278 278 279 280 281 280 281 282 283 282 282 282 282 284 285 285 286 287 288 290 293 295 298 300 301 302 305 308 310 311 311 312 313 313 313 314 314 316 317 319 320 321 322 322 322
262 259 257 256 255 255 256 257 259 262 263 264 265 266 266 268 269 269 269 267 259 252 250 250 250 252 255 258 259 262 265 267 270 272 273 273 274 274 274 275 275 276 278 279 279 279 279 280 281 280 279 279 280 282 283 284 285 286 287 290 291 294 296 297 298 300 304 307 308 308 309 310 310 311 312 312 314 315 317 318 319 319 320 320 320
263 260 259 258 258 257 258 258 259 261 262 263 266 267 267 268 270 273 280 280 267 253 247 249 251 252 255 257 258 259 262 265 269 271 270 269 270 271 272 274 275 276 277 277 278 278 277 278 278 278 277 277 278 279 281 282 284 286 287 289 290 292 294 295 297 299 302 305 306 306 307 307 308 310 311 312 313 315 316 317 318 318 319 319 319
262 261 260 259 259 258 258 259 260 261 262 263 265 266 266 268 270 273 280 286 276 259 250 249 251 254 257 258 258 259 260 263 267 268 267 266 268 269 271 273 274 275 275 276 276 275 275 275 275 276 275 276 277 278 280 282 284 285 287 288 289 291 293 294 296 299 301 304 304 304 305 306 307 309 311 312 313 314 315 316 317 317 318 318 318
259 259 259 258 258 257 258 259 260 261 262 263 264 266 268 269 271 273 275 282 282 270 257 251 252 256 259 260 259 259 260 262 265 266 265 264 266 269 271 273 273 274 274 274 274 273 273 273 274 275 275 275 276 278 280 282 283 285 287 288 289 291 293 295 297 299 301 302 303 304 305 306 307 308 309 310 311 312 313 314 315 316 317 317 316
258 258 257 257 257 256 257 258 259 260 262 263 264 267 269 270 271 272 272 274 278 276 266 258 256 259 261 261 260 260 260 262 264 265 264 265 267 269 271 273 274 273 273 272 272 272 273 274 275 275 274 274 276 278 279 281 283 285 287 288 289 291 293 295 297 299 300 301 302 304 305 306 306 307 308 309 310 310 311 312 313 314 315 315 314
257 257 256 257 257 257 258 260 261 262 264 265 265 267 268 269 270 271 270 268 269 269 267 263 261 262 263 263 262 261 261 262 264 265 267 268 268 270 272 273 274 273 272 273 274 276 277 278 276 275 275 275 276 278 280 281 283 285 286 288 290 291 293 296 298 299 300 301 302 303 304 305 306 306 307 308 308 309 309 310 311 312 312 312 312
259 259 259 259 260 260 261 263 264 265 267 268 268 268 269 269 269 270 269 268 266 265 263 263 263 263 264 265 264 262 262 263 266 268 270 270 270 271 273 274 273 273 275 278 280 280 280 278 276 275 275 275 276 278 280 282 283 284 286 288 289 291 293 296 298 299 300 301 302 303 303 304 305 305 306 307 307 307 308 309 310 310 310 309 309
261 262 263 263 264 265 265 266 267 268 269 270 270 270 271 271 271 271 271 270 269 268 267 266 266 267 267 267 266 264 263 265 267 269 271 272 272 272 272 273 274 276 280 282 282 280 279 278 277 275 275 275 277 279 281 282 283 284 286 288 289 291 294 296 297 298 299 300 301 302 303 303 304 305 305 306 306 306 307 308 308 308 308 308 308
263 264 264 265 265 266 267 268 269 270 271 272 273 273 272 272 271 271 271 271 270 269 268 267 267 268 269 268 266 264 264 265 267 270 273 274 273 272 273 274 277 280 282 282 281 280 279 278 277 276 276 277 278 279 280 282 283 285 286 288 290 292 294 295 296 298 299 299 300 301 302 303 303 304 304 304 304 304 305 306 306 306 307 307 307
265 266 266 267 268 269 270 271 272 273 274 275 275 275 274 274 272 271 270 270 270 270 268 267 267 267 267 267 267 267 267 268 270 274 277 278 277 277 278 280 281 282 283 282 280 279 278 277 277 277 277 277 278 280 281 282 284 285 287 289 291 293 294 296 297 298 298 299 300 301 301 302 302 302 302 302 303 304 304 305 305 305 305 305 306
267 268 269 270 271 272 273 275 275 276 276 276 275 274 274 275 274 272 270 268 268 268 267 268 269 268 266 267 270 272 273 274 277 280 281 281 281 282 283 283 282 283 282 281 279 279 278 278 278 278 278 278 279 281 282 283 285 287 289 291 292 294 295 296 297 298 298 299 300 301 301 300 300 301 301 302 303 304 304 304 304 305 304 305 305
268 269 270 271 272 273 274 274 274 274 273 272 272 272 273 273 274 273 270 268 267 267 268 270 271 270 268 270 274 277 278 279 280 281 281 282 283 283 282 282 282 282 281 280 280 280 281 281 280 280 279 279 281 283 284 286 288 290 292 293 294 295 296 297 297 298 299 300 300 300 300 300 301 301 302 303 303 303 303 303 303 303 303 303 303
Height
5783 5784 5784 5784 5785 5786 5787 5788 5789 5789 5790 5791 5792 5793 5794 5795 5796 5797 5798 5798 5799 5799 5800 5801 5801 5801 5801 5801 5801 5801 5801 5801 5800 5800 5799 5798 5798 5797 5796 5794 5793 5791 5789 5787 5785 5783 5781 5778 5776 5773 5770 5767 5765 5762 5759 5756 5753 5750 5747 5744 5740 5736 5731 5727 5722 5716 5712 5708 5703 5698 5694 5690 5685 5681 5677 5672 5667 5662 5657 5652 5648 5645 5642 5639 5636
5782 5783 5784 5784 5784 5785 5786 5787 5788 5788 5789 5790 5790 5791 5792 5794 5795 5796 5796 5797 5797 5798 5798 5799 5799 5799 5799 5799 5799 5799 5799 5799 5798 5798 5797 5796 5796 5795 5793 5791 5789 5788 5786 5784 5782 5780 5777 5775 5772 5769 5767 5764 5761 5759 5756 5753 5750 5747 5744 5740 5737 5733 5728 5723 5718 5713 5708 5704 5699 5694 5689 5686 5682 5677 5672 5668 5662 5657 5652 5647 5642 5638 5635 5631 5627
5781 5782 5784 5784 5784 5785 5785 5786 5786 5787 5788 5788 5789 5790 5791 5793 5794 5794 5795 5795 5796 5796 5796 5797 5797 5797 5797 5797 5797 5797 5797 5797 5796 5796 5795 5794 5793 5792 5790 5788 5786 5784 5783 5781 5779 5777 5774 5771 5769 5766 5764 5761 5758 5755 5752 5750 5747 5743 5740 5737 5733 5729 5725 5720 5715 5710 5704 5699 5696 5691 5686 5682 5678 5674 5668 5663 5658 5652 5646 5642 5637 5632 5628 5624 5620
5780 5781 5782 5783 5783 5783 5784 5784 5785 5785 5786 5787 5788 5789 5790 5792 5792 5793 5793 5793 5794 5794 5794 5794 5795 5795 5795 5795 5795 5795 5795 5794 5794 5793 5793 5792 5790 5789 5787 5785 5783 5782 5780 5778 5776 5773 5771 5768 5766 5763 5761 5758 5755 5753 5750 5746 5743 5740 5736 5733 5729 5724 5720 5715 5710 5706 5701 5696 5692 5688 5683 5678 5674 5669 5664 5659 5654 5648 5641 5636 5632 5627 5622 5618 5614
5777 5778 5780 5781 5781 5782 5782 5783 5784 5784 5785 5786 5787 5788 5789 5790 5791 5791 5791 5791 5791 5792 5792 5792 5793 5793 5793 5793 5793 5793 5792 5792 5792 5791 5790 5789 5788 5786 5784 5782 5781 5779 5777 5775 5773 5770 5768 5766 5763 5761 5758 5755 5752 5750 5747 5744 5740 5737 5733 5729 5725 5721 5716 5711 5706 5702 5698 5694 5689 5684 5679 5675 5670 5665 5660 5655 5651 5645 5638 5632 5627 5622 5617 5613 5609
5775 5776 5777 5779 5780 5781 5781 5782 5783 5784 5784 5785 5786 5787 5788 5788 5789 5789 5789 5789 5789 5790 5790 5791 5791 5791 5791 5790 5790 5790 5790 5790 5789 5788 5787 5786 5785 5783 5781 5780 5778 5776 5774 5772 5770 5767 5765 5763 5760 5758 5755 5752 5750 5747 5744 5741 5738 5734 5730 5726 5721 5717 5712 5708 5704 5699 5695 5691 5686 5682 5677 5672 5667 5662 5656 5651 5646 5641 5635 5629 5623 5618 5613 5609 5606
5774 5775 5776 5777 5779 5780 5780 5781 5782 5783 5783 5784 5785 5785 5786 5786 5787 5787 5787 5788 5788 5788 5788 5789 5789 5789 5788 5788 5788 5788 5788 5787 5787 5786 5784 5783 5781 5780 5778 5777 5775 5773 5771 5769 5767 5764 5762 5760 5757 5755 5753 5750 5748 5745 5742 5739 5735 5731 5727 5723 5718 5714 5710 5706 5702 5697 5693 5688 5684 5679 5674 5669 5664 5659 5653 5648 5642 5637 5632 5626 5620 5614 5610 5606 5603
5773 5774 5775 5776 5777 5778 5779 5780 5781 5781 5782 5783 5783 5783 5784 5784 5785 5785 5786 5786 5786 5786 5787 5787 5787 5786 5786 5786 5786 5785 5785 5785 5784 5783 5781 5780 5778 5777 5775 5774 5772 5770 5768 5766 5764 5761 5759 5757 5755 5752 5750 5748 5745 5743 5740 5736 5732 5728 5724 5720 5716 5712 5707 5704 5700 5696 5691 5686 5681 5677 5672 5667 5662 5656 5651 5646 5640 5634 5627 5620 5615 5611 5606 5603 5600
5772 5773 5774 5775 5776 5777 5778 5779 5779 5780 5780 5781 5781 5782 5782 5783 5783 5784 5784 5784 5785 5785 5785 5785 5785 5784 5784 5784 5783 5783 5782 5782 5781 5780 5778 5777 5775 5774 5773 5771 5769 5768 5765 5763 5761 5759 5757 5755 5753 5751 5748 5746 5743 5740 5737 5733 5729 5725 5721 5717 5713 5709 5705 5702 5697 5693 5689 5684 5680 5675 5670 5665 5660 5654 5648 5642 5636 5629 5622 5616 5611 5607 5603 5600 5597
5771 5772 5773 5774 5775 5775 5776 5777 5778 5778 5778 5779 5779 5780 5780 5781 5781 5782 5782 5782 5783 5783 5783 5783 5782 5782 5782 5781 5781 5780 5780 5779 5778 5776 5775 5774 5772 5771 5770 5768 5767 5764 5762 5760 5758 5756 5754 5752 5750 5749 5746 5744 5741 5738 5735 5731 5727 5723 5719 5715 5711 5707 5703 5699 5695 5691 5687 5682 5678 5673 5668 5663 5657 5652 5645 5639 5633 5627 5620 5614 5608 5604 5601 5598 5594
5769 5771 5772 5772 5773 5773 5774 5775 5775 5776 5776 5777 5777 5778 5779 5779 5779 5780 5780 5780 5780 5780 5780 5780 5780 5779 5779 5778 5778 5777 5777 5776 5775 5773 5772 5771 5769 5768 5767 5765 5763 5761 5759 5758 5756 5754 5752 5750 5748 5746 5744 5741 5738 5735 5732 5728 5725 5721 5717 5714 5710 5705 5701 5697 5693 5689 5685 5680 5676 5671 5666 5661 5655 5649 5644 5638 5632 5625 5619 5612 5606 5602 5598 5595 5591
5768 5769 5770 5770 5771 5771 5772 5773 5773 5773 5774 5774 5775 5776 5776 5777 5777 5777 5777 5777 5777 5777 5777 5777 5777 5776 5776 5775 5775 5774 5773 5772 5771 5770 5769 5768 5766 5765 5764 5762 5760 5758 5757 5755 5753 5751 5750 5748 5746 5743 5741 5738 5735 5732 5729 5725 5722 5718 5714 5711 5707 5703 5699 5695 5691 5687 5682 5678 5674 5669 5665 5660 5654 5648 5642 5636 5630 5624 5618 5612 5606 5600 5596 5592 5588
5766 5767 5768 5768 5769 5769 5770 5770 5770 5771 5771 5772 5773 5773 5774 5774 5774 5774 5774 5774 5774 5774 5774 5774 5773 5773 5773 5772 5771 5771 5770 5769 5768 5767 5766 5765 5763 5762 5760 5759 5757 5755 5754 5752 5750 5749 5747 5745 5743 5741 5738 5735 5732 5729 5726 5722 5718 5715 5711 5707 5703 5700 5696 5692 5688 5684 5680 5676 5672 5668 5663 5659 5653 5647 5641 5635 5629 5624 5619 5613 5607 5601 5595 5591 5586
5764 5765 5766 5766 5767 5767 5767 5768 5768 5768 5768 5769 5770 5770 5771 5771 5771 5771 5771 5771 5771 5771 5770 5770 5770 5769 5769 5769 5768 5767 5767 5766 5765 5764 5763 5762 5760 5759 5757 5756 5754 5753 5751 5749 5748 5746 5744 5742 5740 5738 5735 5732 5729 5726 5723 5719 5716 5712 5708 5705 5701 5697 5693 5690 5686 5682 5678 5674 5670 5666 5662 5657 5652 5646 5640 5634 5629 5623 5618 5613 5608 5601 5595 5590 5585
5761 5762 5763 5764 5764 5764 5764 5764 5764 5765 5765 5766 5766 5767 5767 5767 5767 5767 5767 5768 5767 5767 5767 5766 5766 5765 5765 5765 5764 5764 5763 5763 5762 5761 5760 5758 5757 5756 5754 5753 5751 5750 5748 5747 5745 5743 5742 5740 5737 5735 5732 5729 5726 5723 5720 5716 5713 5709 5706 5702 5699 5695 5692 5688 5685 5681 5677 5673 5669 5665 5660 5656 5651 5646 5641 5635 5629 5624 5618 5613 5609 5603 5598 5592 5586
5758 5759 5760 5760 5761 5761 5761 5761 5761 5761 5761 5762 5763 5764 5764 5764 5763 5764 5764 5764 5764 5763 5763 5762 5762 5761 5761 5761 5761 5760 5760 5759 5758 5757 5756 5755 5754 5752 5751 5750 5749 5747 5745 5744 5742 5741 5739 5737 5735 5732 5729 5726 5723 5720 5717 5714 5710 5707 5703 5700 5696 5693 5690 5686 5683 5679 5676 5672 5668 5663 5659 5654 5650 5645 5641 5637 5632 5626 5621 5616 5611 5606 5600 5594 5588
5754 5755 5756 5756 5757 5757 5757 5757 5757 5757 5758 5759 5760 5760 5760 5760 5760 5761 5761 5761 5760 5759 5759 5759 5758 5757 5757 5757 5757 5757 5756 5755 5755 5754 5753 5752 5751 5749 5748 5747 5746 5744 5743 5741 5740 5738 5736 5734 5732 5729 5726 5723 5720 5718 5715 5712 5708 5705 5701 5698 5694 5691 5687 5684 5680 5677 5674 5671 5667 5662 5658 5653 5649 5645 5641 5637 5633 5628 5623 5618 5612 5606 5601 5596 5590
5751 5752 5752 5752 5752 5753 5753 5753 5753 5754 5755 5756 5757 5757 5757 5757 5757 5757 5757 5757 5756 5756 5754 5754 5753 5753 5753 5754 5753 5753 5753 5752 5751 5751 5750 5749 5748 5746 5745 5744 5743 5741 5740 5739 5737 5735 5734 5732 5729 5726 5723 5721 5718 5715 5713 5710 5707 5703 5700 5697 5693 5690 5686 5683 5679 5676 5673 5670 5666 5662 5658 5653 5649 5645 5640 5636 5633 5629 5625 5619 5612 5606 5601 5595 5590
5747 5747 5747 5747 5748 5749 5750 5750 5750 5750 5751 5752 5753 5754 5754 5754 5753 5753 5753 5752 5752 5752 5750 5749 5749 5749 5750 5750 5750 5749 5749 5748 5748 5747 5746 5746 5745 5743 5742 5741 5740 5739 5737 5736 5734 5733 5731 5729 5726 5724 5721 5718 5716 5713 5711 5708 5705 5702 5699 5696 5693 5689 5686 5683 5679 5676 5673 5669 5666 5662 5658 5653 5649 5645 5640 5636 5632 5629 5625 5619 5614 5608 5601 5596 5590
5742 5742 5743 5744 5745 5745 5746 5746 5747 5747 5748 5749 5750 5751 5750 5750 5749 5749 5749 5748 5748 5747 5746 5745 5746 5747 5747 5747 5746 5746 5746 5745 5744 5744 5743 5742 5742 5740 5739 5738 5737 5736 5735 5733 5732 5730 5728 5726 5724 5721 5718 5716 5713 5711 5709 5706 5703 5700 5698 5695 5692 5688 5685 5682 5678 5675 5672 5668 5664 5661 5657 5653 5649 5645 5641 5637 5632 5628 5624 5619 5614 5609 5603 5598 5592
5738 5739 5739 5740 5741 5741 5742 5743 5743 5744 5745 5746 5747 5747 5747 5746 5746 5745 5745 5745 5744 5744 5743 5743 5744 5745 5744 5744 5743 5743 5742 5742 5741 5741 5740 5739 5738 5737 5736 5735 5734 5733 5732 5730 5729 5727 5725 5723 5721 5718 5716 5714 5711 5709 5706 5704 5701 5699 5696 5693 5690 5687 5684 5680 5677 5673 5670 5667 5663 5660 5657 5653 5650 5646 5642 5637 5633 5628 5623 5619 5614 5609 5604 5599 5594
5734 5735 5735 5736 5737 5738 5738 5739 5740 5741 5742 5743 5743 5744 5743 5743 5742 5742 5741 5741 5741 5740 5740 5740 5741 5742 5741 5741 5740 5740 5739 5739 5738 5737 5737 5736 5735 5734 5733 5732 5731 5730 5729 5728 5726 5724 5722 5720 5718 5716 5714 5711 5709 5707 5704 5702 5699 5696 5694 5691 5688 5685 5682 5679 5675 5672 5669 5665 5662 5659 5656 5653 5650 5646 5642 5638 5633 5628 5623 5618 5614 5610 5605 5600 5595
5730 5731 5732 5733 5734 5734 5735 5736 5736 5737 5738 5739 5739 5739 5739 5739 5739 5738 5738 5737 5737 5737 5737 5738 5738 5738 5738 5738 5737 5736 5736 5735 5735 5734 5734 5733 5732 5731 5730 5729 5728 5727 5726 5725 5723 5721 5719 5717 5715 5713 5711 5709 5706 5704 5702 5699 5697 5694 5692 5689 5686 5683 5680 5677 5674 5671 5668 5664 5661 5658 5655 5652 5649 5646 5642 5638 5634 5629 5624 5619 5614 5610 5606 5602 5598
5726 5727 5728 5729 5730 5731 5731 5732 5733 5733 5734 5735 5735 5735 5735 5735 5735 5735 5735 5734 5734 5734 5735 5735 5734 5735 5735 5735 5734 5733 5733 5732 5731 5731 5730 5729 5729 5728 5727 5726 5725 5724 5723 5722 5720 5718 5716 5714 5712 5710 5708 5706 5704 5702 5699 5697 5694 5692 5690 5687 5684 5681 5678 5675 5672 5669 5666 5664 5661 5657 5654 5651 5648 5645 5642 5638 5634 5629 5624 5620 5615 5611 5607 5603 5600
5723 5724 5724 5725 5726 5726 5727 5728 5729 5730 5730 5730 5731 5731 5731 5731 5731 5731 5731 5731 5731 5731 5731 5731 5731 5731 5732 5731 5731 5730 5729 5729 5728 5727 5727 5726 5725 5725 5724 5723 5722 5721 5720 5718 5717 5715 5713 5711 5710 5708 5706 5703 5701 5699 5697 5694 5692 5690 5687 5685 5682 5679 5676 5673 5670 5668 5665 5662 5659 5656 5653 5650 5647 5643 5640 5637 5633 5630 5626 5621 5617 5613 5608 5604 5600
5719 5720 5721 5721 5722 5723 5724 5725 5726 5726 5725 5726 5727 5727 5727 5727 5727 5727 5727 5727 5727 5727 5728 5728 5728 5728 5728 5728 5727 5727 5726 5725 5725 5724 5723 5723 5722 5722 5721 5720 5719 5718 5717 5715 5714 5712 5710 5708 5707 5705 5703 5701 5699 5696 5694 5692 5690 5688 5685 5683 5680 5677 5675 5672 5669 5666 5663 5661 5658 5655 5652 5649 5645 5642 5639 5636 5633 5630 5627 5623 5620 5616 5612 5607 5602
5716 5716 5717 5718 5718 5719 5720 5721 5721 5722 5722 5722 5723 5723 5723 5723 5724 5724 5724 5724 5724 5724 5724 5724 5724 5725 5725 5724 5724 5723 5723 5722 5722 5721 5720 5720 5719 5718 5718 5717 5716 5715 5713 5712 5710 5709 5707 5705 5704 5702 5700 5698 5696 5694 5692 5690 5687 5685 5683 5681 5678 5676 5673 5670 5667 5665 5662 5659 5656 5653 5650 5647 5644 5641 5638 5635 5632 5629 5626 5623 5620 5617 5614 5610 5605
5711 5712 5713 5714 5715 5716 5717 5717 5717 5718 5718 5718 5719 5719 5720 5719 5720 5720 5720 5720 5721 5721 5721 5721 5721 5721 5721 5721 5720 5720 5720 5719 5718 5718 5717 5716 5716 5715 5714 5714 5713 5711 5710 5709 5707 5706 5704 5702 5701 5699 5697 5695 5693 5691 5689 5687 5685 5683 5681 5679 5676 5674 5671 5668 5665 5663 5660 5657 5655 5652 5649 5646 5643 5640 5637 5634 5631 5628 5625 5623 5620 5617 5614 5611 5607
5707 5709 5710 5710 5711 5712 5713 5713 5714 5714 5714 5714 5715 5715 5715 5715 5716 5716 5717 5717 5717 5718 5718 5718 5718 5718 5717 5717 5717 5717 5716 5716 5715 5714 5714 5713 5713 5712 5711 5710 5709 5708 5707 5705 5704 5703 5701 5699 5698 5696 5694 5692 5690 5688 5686 5684 5682 5680 5679 5676 5674 5672 5669 5666 5664 5661 5658 5656 5653 5651 5648 5646 5643 5639 5636 5633 5630 5627 5624 5622 5619 5616 5613 5610 5608
5703 5704 5706 5706 5707 5707 5708 5709 5709 5709 5710 5711 5711 5711 5711 5711 5711 5712 5713 5713 5714 5714 5714 5715 5714 5714 5714 5714 5714 5714 5713 5712 5712 5711 5710 5710 5709 5708 5707 5707 5705 5704 5703 5702 5701 5699 5698 5696 5694 5693 5691 5690 5688 5685 5683 5682 5679 5677 5676 5674 5671 5669 5667 5664 5662 5659 5657 5654 5652 5649 5647 5644 5641 5638 5635 5632 5629 5626 5623 5620 5617 5615 5612 5609 5607
5699 5700 5701 5702 5702 5703 5704 5705 5705 5705 5706 5707 5707 5708 5708 5707 5708 5709 5709 5710 5710 5710 5711 5711 5711 5710 5710 5710 5710 5710 5709 5709 5708 5707 5707 5706 5705 5704 5704 5703 5702 5701 5700 5699 5697 5696 5694 5693 5691 5689 5688 5686 5684 5682 5680 5678 5676 5674 5672 5670 5668 5666 5664 5662 5660 5657 5655 5652 5650 5647 5645 5642 5640 5637 5634 5631 5628 5625 5622 5619 5616 5613 5610 5608 5605
5695 5696 5696 5696 5697 5698 5699 5700 5701 5701 5702 5703 5703 5704 5705 5704 5704 5705 5705 5706 5706 5707 5707 5707 5707 5707 5707 5707 5707 5706 5706 5705 5704 5703 5702 5702 5701 5700 5699 5699 5698 5697 5696 5695 5693 5692 5690 5689 5687 5685 5684 5682 5681 5679 5677 5675 5673 5671 5669 5667 5665 5663 5661 5660 5657 5655 5652 5650 5648 5645 5643 5640 5638 5635 5632 5630 5627 5624 5621 5618 5615 5612 5609 5606 5603
5689 5690 5690 5691 5692 5693 5695 5696 5696 5697 5698 5698 5699 5700 5700 5700 5700 5700 5701 5701 5702 5703 5703 5703 5703 5702 5702 5703 5702 5702 5701 5701 5700 5699 5698 5698 5697 5696 5695 5694 5694 5692 5691 5690 5689 5688 5686 5685 5683 5681 5680 5678 5677 5675 5673 5672 5670 5667 5666 5664 5662 5660 5658 5657 5655 5653 5650 5648 5645 5643 5641 5638 5636 5633 5630 5628 5625 5622 5619 5617 5614 5611 5608 5605 5602
5683 5684 5685 5686 5687 5689 5690 5691 5692 5692 5693 5693 5694 5695 5695 5696 5696 5695 5696 5697 5698 5699 5699 5699 5698 5698 5698 5698 5698 5698 5697 5696 5696 5695 5694 5694 5693 5692 5691 5690 5689 5688 5687 5686 5685 5683 5682 5680 5679 5677 5676 5674 5673 5671 5670 5668 5666 5664 5662 5660 5658 5657 5655 5653 5652 5650 5647 5645 5643 5640 5638 5636 5633 5631 5628 5626 5623 5620 5617 5615 5612 5609 5607 5604 5601
5677 5678 5679 5681 5682 5684 5685 5686 5687 5688 5688 5688 5689 5689 5690 5690 5691 5691 5692 5693 5693 5694 5694 5694 5694 5694 5694 5694 5694 5693 5692 5692 5691 5691 5690 5690 5689 5688 5687 5686 5685 5684 5683 5682 5680 5679 5678 5676 5675 5673 5672 5670 5669 5668 5666 5664 5663 5661 5659 5657 5655 5653 5651 5650 5648 5646 5644 5642 5639 5637 5635 5633 5631 5628 5626 5623 5621 5618 5615 5612 5610 5607 5604 5602 5599
5672 5673 5674 5676 5677 5679 5681 5682 5683 5683 5684 5684 5684 5684 5684 5685 5685 5686 5687 5687 5688 5689 5689 5689 5690 5690 5689 5689 5689 5688 5688 5687 5687 5687 5686 5685 5685 5684 5682 5681 5680 5680 5678 5677 5676 5675 5673 5672 5670 5669 5667 5666 5665 5664 5662 5660 5659 5657 5655 5653 5652 5650 5648 5646 5644 5643 5641 5638 5636 5634 5632 5630 5627 5625 5623 5620 5618 5615 5612 5610 5607 5604 5602 5599 5597
5667 5668 5669 5670 5672 5674 5676 5677 5678 5678 5679 5679 5678 5678 5678 5679 5680 5681 5681 5682 5683 5683 5684 5684 5685 5685 5684 5684 5683 5683 5683 5683 5683 5682 5681 5681 5680 5679 5677 5677 5676 5675 5674 5672 5671 5670 5669 5667 5666 5664 5663 5662 5660 5659 5658 5656 5655 5653 5651 5649 5648 5646 5644 5642 5640 5639 5637 5634 5632 5630 5628 5626 5624 5621 5619 5617 5614 5611 5609 5606 5604 5601 5599 5596 5594
5663 5664 5664 5666 5667 5669 5671 5672 5673 5674 5674 5674 5673 5673 5673 5674 5675 5676 5676 5676 5677 5677 5678 5678 5679 5679 5678 5678 5678 5678 5678 5678 5677 5677 5676 5675 5675 5674 5673 5672 5672 5671 5669 5668 5667 5665 5664 5662 5661 5660 5658 5657 5656 5654 5653 5652 5650 5649 5647 5645 5644 5642 5640 5638 5636 5635 5633 5631 5628 5626 5624 5622 5620 5617 5615 5613 5610 5608 5605 5602 5600 5598 5595 5593 5590
5658 5659 5660 5661 5663 5664 5666 5667 5668 5669 5669 5669 5669 5669 5669 5670 5670 5670 5670 5670 5671 5672 5672 5673 5673 5673 5672 5672 5672 5672 5672 5672 5671 5671 5670 5670 5670 5669 5668 5668 5666 5665 5664 5663 5662 5660 5659 5657 5656 5655 5653 5652 5651 5649 5648 5647 5646 5644 5643 5641 5640 5638 5636 5633 5631 5630 5629 5627 5624 5622 5620 5617 5615 5613 5610 5608 5606 5603 5601 5598 5596 5593 5591 5589 5586
5654 5655 5656 5657 5658 5660 5661 5662 5663 5664 5664 5664 5664 5665 5665 5665 5665 5665 5665 5664 5664 5665 5666 5667 5667 5666 5666 5665 5666 5666 5666 5666 5666 5666 5665 5665 5665 5664 5663 5662 5661 5660 5658 5657 5656 5655 5653 5652 5651 5649 5648 5647 5645 5644 5643 5642 5641 5639 5638 5637 5635 5633 5631 5629 5627 5625 5624 5622 5620 5617 5615 5613 5610 5608 5606 5603 5601 5599 5596 5594 5591 5589 5587 5584 5582
5651 5651 5652 5653 5654 5656 5657 5657 5658 5658 5658 5659 5659 5659 5659 5659 5659 5659 5658 5658 5658 5658 5660 5661 5661 5660 5660 5660 5660 5660 5660 5661 5661 5661 5660 5660 5659 5658 5657 5656 5655 5654 5653 5651 5650 5649 5647 5646 5645 5644 5642 5641 5640 5639 5638 5637 5636 5635 5634 5632 5631 5629 5626 5624 5622 5621 5619 5617 5615 5613 5610 5608 5606 5603 5600 5598 5596 5594 5591 5589 5587 5584 5582 5579 5577
5647 5647 5648 5649 5650 5651 5652 5652 5652 5653 5653 5653 5653 5653 5653 5654 5654 5654 5653 5653 5652 5653 5654 5655 5655 5655 5655 5654 5654 5654 5654 5655 5655 5655 5654 5653 5652 5652 5651 5650 5648 5647 5646 5645 5644 5643 5641 5640 5639 5638 5637 5636 5635 5634 5633 5632 5631 5630 5629 5627 5625 5624 5622 5619 5617 5616 5614 5612 5610 5608 5605 5603 5601 5598 5596 5593 5591 5589 5586 5584 5582 5579 5577 5575 5572
5643 5643 5644 5645 5646 5646 5647 5647 5648 5648 5648 5648 5648 5648 5648 5648 5649 5649 5649 5648 5648 5648 5648 5649 5650 5650 5649 5648 5648 5648 5648 5648 5648 5648 5647 5646 5646 5646 5645 5644 5642 5641 5640 5639 5638 5637 5635 5635 5634 5633 5631 5630 5629 5629 5628 5627 5626 5625 5623 5622 5620 5618 5616 5614 5612 5610 5609 5607 5604 5602 5600 5597 5595 5593 5591 5588 5586 5584 5581 5579 5576 5574 5571 5569 5567
5638 5639 5640 5641 5641 5642 5642 5642 5643 5643 5643 5643 5643 5643 5643 5643 5643 5643 5643 5643 5643 5643 5644 5645 5646 5645 5644 5643 5643 5643 5643 5642 5642 5641 5641 5641 5641 5640 5639 5638 5637 5635 5634 5633 5632 5631 5630 5629 5628 5627 5626 5625 5624 5623 5622 5621 5620 5619 5618 5616 5614 5613 5611 5609 5606 5604 5603 5601 5599 5597 5594 5592 5589 5587 5585 5583 5581 5578 5576 5573 5571 5568 5566 5564 5561
5634 5635 5636 5636 5637 5637 5637 5637 5638 5638 5638 5638 5638 5638 5638 5638 5638 5638 5638 5638 5638 5639 5639 5639 5640 5640 5639 5638 5637 5637 5636 5636 5636 5636 5636 5635 5635 5634 5633 5632 5630 5629 5627 5627 5627 5626 5625 5624 5623 5621 5620 5619 5619 5618 5617 5616 5615 5613 5612 5610 5609 5607 5605 5603 5601 5599 5597 5595 5593 5591 5588 5586 5583 5581 5579 5577 5574 5572 5570 5568 5565 5563 5560 5558 5556
5631 5631 5632 5632 5632 5633 5633 5633 5633 5633 5633 5633 5633 5633 5633 5633 5632 5632 5632 5633 5633 5633 5633 5633 5633 5633 5632 5632 5631 5630 5630 5631 5631 5631 5630 5630 5628 5628 5627 5625 5624 5623 5622 5622 5622 5621 5620 5618 5617 5616 5615 5614 5613 5612 5611 5610 5609 5607 5606 5604 5603 5601 5599 5597 5595 5593 5591 5589 5587 5584 5582 5580 5577 5575 5572 5570 5568 5565 5563 5561 5558 5556 5554 5551 5549
5627 5627 5627 5628 5628 5628 5628 5628 5629 5629 5629 5629 5628 5628 5628 5628 5627 5627 5627 5627 5627 5627 5627 5627 5627 5626 5626 5625 5624 5624 5625 5625 5625 5625 5624 5622 5621 5620 5619 5618 5618 5618 5618 5618 5617 5615 5614 5613 5611 5610 5609 5608 5607 5607 5606 5604 5603 5601 5600 5598 5597 5595 5593 5591 5589 5587 5585 5582 5580 5578 5576 5574 5571 5568 5566 5563 5560 5558 5556 5553 5551 5548 5546 5544 5541
5623 5623 5623 5623 5623 5623 5623 5623 5623 5623 5623 5623 5623 5622 5622 5622 5622 5621 5621 5621 5621 5621 5621 5620 5620 5620 5619 5619 5618 5618 5618 5618 5618 5618 5617 5615 5614 5613 5613 5613 5613 5613 5612 5611 5610 5609 5608 5607 5605 5604 5603 5602 5602 5601 5599 5598 5597 5595 5594 5592 5591 5589 5587 5585 5583 5581 5578 5576 5574 5571 5569 5567 5564 5561 5559 5556 5553 5551 5548 5546 5543 5541 5538 5536 5534
5618 5618 5618 5618 5618 5618 5618 5618 5618 5617 5617 5617 5617 5616 5616 5616 5615 5615 5615 5615 5615 5615 5614 5614 5614 5613 5613 5613 5613 5613 5612 5612 5612 5611 5611 5610 5609 5608 5608 5608 5607 5607 5606 5605 5604 5603 5602 5600 5599 5598 5598 5597 5596 5594 5593 5592 5590 5589 5588 5586 5585 5583 5581 5578 5576 5574 5571 5569 5567 5564 5562 5559 5557 5554 5551 5549 5546 5543 5541 5538 5535 5533 5531 5528 5526
5614 5613 5613 5613 5613 5613 5613 5612 5612 5612 5612 5611 5611 5611 5610 5610 5609 5609 5609 5609 5609 5609 5608 5608 5608 5608 5608 5608 5608 5608 5607 5607 5606 5606 5605 5604 5604 5603 5603 5602 5601 5600 5600 5599 5598 5596 5595 5595 5594 5593 5592 5591 5590 5588 5587 5585 5584 5583 5581 5579 5578 5576 5573 5571 5569 5566 5564 5561 5559 5556 5554 5551 5548 5546 5543 5540 5538 5535 5532 5530 5527 5525 5522 5520 5518
5609 5608 5608 5608 5608 5608 5607 5607 5606 5606 5605 5605 5605 5605 5604 5604 5604 5603 5603 5603 5603 5603 5603 5603 5603 5603 5603 5603 5603 5603 5602 5601 5601 5600 5599 5599 5598 5597 5597 5596 5595 5594 5593 5593 5592 5591 5590 5589 5588 5587 5586 5585 5583 5582 5581 5579 5578 5576 5574 5573 5570 5568 5566 5564 5561 5558 5556 5553 5550 5548 5545 5543 5540 5537 5534 5532 5529 5527 5524 5522 5519 5516 5514 5511 5509